This is the latest recevied weather packets stored in our database for station/object W4MLN-1. If no packets are shown the sender has not sent any weather packets the latest 10 day(s).
| Time | Temp. | Humidity | Pressure | Rain* | Wind** | Luminosity | Snow |
|---|---|---|---|---|---|---|---|
| 1777575062 | 15.56° C | 49% | 1012.1 hPa | 0 mm | - | 952 W/m² | - |
| 1777574762 | 15.56° C | 51% | 1011.9 hPa | 0 mm | - | 951 W/m² | - |
| 1777574462 | 15° C | 51% | 1012 hPa | 0 mm | - | 979 W/m² | - |
| 1777574162 | 15° C | 49% | 1012.1 hPa | 0 mm | - | 985 W/m² | - |
| 1777573862 | 15° C | 52% | 1012 hPa | 0 mm | - | 984 W/m² | - |
| 1777573563 | 15° C | 51% | 1012 hPa | 0 mm | - | 982 W/m² | - |
| 1777573262 | 15° C | 53% | 1011.9 hPa | 0 mm | - | 995 W/m² | - |
| 1777572960 | 15° C | 53% | 1011.9 hPa | 0 mm | - | 707 W/m² | - |
| 1777572660 | 15° C | 52% | 1011.9 hPa | 0 mm | - | 1009 W/m² | - |
| 1777572360 | 14.44° C | 52% | 1012.1 hPa | 0 mm | - | 1019 W/m² | - |
| 1777572060 | 14.44° C | 51% | 1012.2 hPa | 0 mm | - | 1019 W/m² | - |
| 1777571760 | 14.44° C | 51% | 1012.3 hPa | 0 mm | - | 917 W/m² | - |
| 1777571460 | 14.44° C | 53% | 1012.2 hPa | 0 mm | - | 1056 W/m² | - |
| 1777571160 | 15° C | 55% | 1012.2 hPa | 0 mm | - | 625 W/m² | - |
| 1777570860 | 14.44° C | 54% | 1012.1 hPa | 0 mm | - | 1119 W/m² | - |
| 1777570561 | 14.44° C | 55% | 1012.3 hPa | 0 mm | - | 1119 W/m² | - |
| 1777570258 | 14.44° C | 57% | 1012.4 hPa | 0 mm | - | 1002 W/m² | - |
| 1777569954 | 15° C | 56% | 1012.3 hPa | 0 mm | - | 656 W/m² | - |
| 1777569652 | 14.44° C | 60% | 1012.3 hPa | 0 mm | - | 1042 W/m² | - |
| 1777569352 | 14.44° C | 58% | 1012.2 hPa | 0 mm | - | 773 W/m² | - |
| 1777569052 | 13.89° C | 60% | 1012.3 hPa | 0 mm | - | 1003 W/m² | - |
| 1777568752 | 13.33° C | 60% | 1012.4 hPa | 0 mm | - | 1105 W/m² | - |
| 1777568452 | 13.33° C | 60% | 1012.3 hPa | 0 mm | - | 1095 W/m² | - |
| 1777568152 | 13.33° C | 63% | 1012.4 hPa | 0 mm | - | 649 W/m² | - |
| 1777567853 | 13.33° C | 63% | 1012.5 hPa | 0 mm | - | 699 W/m² | - |
* Rain latest hour (hover to see other rain measurements)
** Current wind speed in m/s (hover to see current wind gust speed)